When you browse on this site, cookies collect data to enhance your experience and personalize the content and advertising you see.
Visit our Privacy Policy to learn more. By continuing to use the site, you agree to this use of cookies and data.
  • In Spain
  • List of Countries
  • For 7 days
  • Water Temperature
  • Weather Map
  • Weather Widgets
  • user-avatar
    Login

    Hourly Weather Lebedin

    Today, 6 April, Monday

    Time Temperature Precipitation Wind Pressure Humidity
    00:00 +2°C° 0 mm 3 mps 762 mmHg 61%
    01:00 +2°C° 0 mm 2 mps 763 mmHg 63%
    02:00 +2°C° 0 mm 2 mps 763 mmHg 65%
    03:00 0°C° 0 mm 3 mps 763 mmHg 66%
    04:00 0°C° 0 mm 3 mps 763 mmHg 67%
    05:00 0°C° 0 mm 3 mps 764 mmHg 68%
    06:00 +1°C° 0 mm 3 mps 764 mmHg 62%
    07:00 +3°C° 0 mm 4 mps 764 mmHg 57%
    08:00 +4°C° 0 mm 4 mps 765 mmHg 51%
    09:00 +5°C° 0 mm 4 mps 765 mmHg 45%
    10:00 +6°C° 0 mm 4 mps 765 mmHg 39%
    11:00 +8°C° 0 mm 4 mps 765 mmHg 33%
    12:00 +8°C° 0 mm 5 mps 765 mmHg 32%
    13:00 +9°C° 0 mm 5 mps 765 mmHg 31%
    14:00 +9°C° 0 mm 5 mps 765 mmHg 30%
    15:00 +9°C° 0 mm 5 mps 765 mmHg 32%
    16:00 +9°C° 0 mm 5 mps 765 mmHg 33%
    17:00 +10°C° 0 mm 4 mps 765 mmHg 35%
    18:00 +8°C° 0 mm 4 mps 765 mmHg 40%
    19:00 +7°C° 0 mm 3 mps 765 mmHg 46%
    20:00 +6°C° 0 mm 2 mps 765 mmHg 51%
    21:00 +6°C° 0 mm 2 mps 765 mmHg 54%
    22:00 +5°C° 0 mm 2 mps 765 mmHg 56%
    23:00 +5°C° 0 mm 2 mps 765 mmHg 59%

    Tomorrow, 7 April, Tuesday

    Time Temperature Precipitation Wind Pressure Humidity
    00:00 +5°C° 0 mm 2 mps 765 mmHg 62%
    01:00 +4°C° 0 mm 2 mps 765 mmHg 66%
    02:00 +4°C° 0 mm 2 mps 765 mmHg 69%
    03:00 +4°C° 0 mm 2 mps 765 mmHg 73%
    04:00 +2°C° 0 mm 3 mps 765 mmHg 77%
    05:00 +2°C° 0 mm 3 mps 765 mmHg 82%
    06:00 +3°C° 0 mm 3 mps 766 mmHg 79%
    07:00 +5°C° 0 mm 3 mps 766 mmHg 75%
    08:00 +7°C° 0 mm 3 mps 766 mmHg 72%
    09:00 +8°C° 0 mm 3 mps 766 mmHg 68%
    10:00 +9°C° 0 mm 3 mps 766 mmHg 63%
    11:00 +10°C° 0 mm 2 mps 766 mmHg 59%
    12:00 +10°C° 0 mm 2 mps 766 mmHg 56%
    13:00 +10°C° 0 mm 2 mps 766 mmHg 54%
    14:00 +12°C° 0 mm 2 mps 766 mmHg 52%
    15:00 +12°C° 0 mm 2 mps 765 mmHg 51%
    16:00 +12°C° 0 mm 2 mps 765 mmHg 51%
    17:00 +12°C° 0 mm 1 mps 765 mmHg 50%
    18:00 +11°C° 0 mm 1 mps 765 mmHg 54%
    19:00 +10°C° 0 mm 1 mps 764 mmHg 59%
    20:00 +9°C° 0 mm 1 mps 764 mmHg 63%
    21:00 +9°C° 0 mm 1 mps 764 mmHg 65%
    22:00 +7°C° 0 mm 2 mps 764 mmHg 67%
    23:00 +7°C° 0 mm 3 mps 764 mmHg 69%

    Day after tomorrow, 8 April, Wednesday

    Time Temperature Precipitation Wind Pressure Humidity
    00:00 +5°C° 0 mm 3 mps 763 mmHg 71%
    01:00 +5°C° 0 mm 3 mps 763 mmHg 73%
    02:00 +4°C° 0 mm 3 mps 763 mmHg 76%
    03:00 +4°C° 0 mm 4 mps 762 mmHg 77%
    04:00 +4°C° 0 mm 4 mps 762 mmHg 77%
    05:00 +4°C° 0 mm 4 mps 761 mmHg 78%
    06:00 +6°C° 0 mm 5 mps 761 mmHg 70%
    07:00 +7°C° 0 mm 6 mps 760 mmHg 63%
    08:00 +9°C° 0 mm 6 mps 759 mmHg 55%
    09:00 +11°C° 0 mm 6 mps 759 mmHg 49%
    10:00 +12°C° 0 mm 7 mps 758 mmHg 44%
    11:00 +15°C° 0 mm 7 mps 758 mmHg 38%
    12:00 +16°C° 0 mm 7 mps 757 mmHg 40%
    13:00 +16°C° 0 mm 7 mps 757 mmHg 41%
    14:00 +17°C° 0 mm 7 mps 756 mmHg 43%
    15:00 +16°C° 0 mm 7 mps 756 mmHg 46%
    16:00 +15°C° 0 mm 6 mps 756 mmHg 48%
    17:00 +15°C° 0 mm 5 mps 756 mmHg 51%
    18:00 +13°C° 0 mm 5 mps 756 mmHg 58%
    19:00 +11°C° 0 mm 4 mps 756 mmHg 64%
    20:00 +10°C° 0 mm 3 mps 756 mmHg 70%
    21:00 +9°C° 0 mm 3 mps 756 mmHg 73%
    22:00 +8°C° 0 mm 2 mps 756 mmHg 75%
    23:00 +8°C° 0 mm 2 mps 756 mmHg 77%

    9 April, Thursday

    Time Temperature Precipitation Wind Pressure Humidity
    00:00 +7°C° 0 mm 2 mps 756 mmHg 80%
    01:00 +7°C° 0 mm 2 mps 756 mmHg 82%
    02:00 +6°C° 0 mm 2 mps 756 mmHg 84%
    03:00 +6°C° 0 mm 2 mps 756 mmHg 84%
    04:00 +6°C° 0 mm 1 mps 756 mmHg 85%
    05:00 +6°C° 0 mm 1 mps 756 mmHg 85%
    06:00 +7°C° 0 mm 1 mps 756 mmHg 78%
    07:00 +9°C° 0 mm 1 mps 756 mmHg 71%
    08:00 +10°C° 0 mm 1 mps 756 mmHg 63%
    09:00 +12°C° 0 mm 1 mps 756 mmHg 57%
    10:00 +13°C° 0 mm 1 mps 756 mmHg 51%
    11:00 +14°C° 0 mm 1 mps 756 mmHg 45%
    12:00 +15°C° 0 mm 2 mps 755 mmHg 42%
    13:00 +16°C° 0 mm 2 mps 755 mmHg 39%
    14:00 +17°C° 0 mm 2 mps 754 mmHg 36%
    15:00 +17°C° 0 mm 2 mps 754 mmHg 36%
    16:00 +17°C° 0 mm 2 mps 753 mmHg 37%
    17:00 +17°C° 0 mm 2 mps 753 mmHg 37%
    18:00 +15°C° 0 mm 2 mps 753 mmHg 41%
    19:00 +14°C° 0 mm 2 mps 752 mmHg 44%
    20:00 +13°C° 0 mm 2 mps 752 mmHg 48%
    21:00 +12°C° 0 mm 2 mps 752 mmHg 50%
    22:00 +10°C° 0 mm 2 mps 752 mmHg 53%
    23:00 +10°C° 0 mm 3 mps 751 mmHg 55%

    10 April, Friday

    Time Temperature Precipitation Wind Pressure Humidity
    00:00 +9°C° 0 mm 3 mps 751 mmHg 57%
    01:00 +9°C° 0 mm 3 mps 750 mmHg 58%
    02:00 +9°C° 0 mm 3 mps 750 mmHg 60%
    03:00 +9°C° 0 mm 3 mps 749 mmHg 59%
    04:00 +8°C° 0 mm 4 mps 749 mmHg 59%
    05:00 +7°C° 0 mm 4 mps 749 mmHg 58%
    06:00 +10°C° 0 mm 4 mps 749 mmHg 58%
    07:00 +11°C° 0 mm 4 mps 748 mmHg 57%
    08:00 +12°C° 0 mm 4 mps 748 mmHg 56%
    09:00 +13°C° 0 mm 5 mps 748 mmHg 53%
    10:00 +15°C° 0 mm 5 mps 748 mmHg 51%
    11:00 +16°C° 0 mm 6 mps 748 mmHg 48%
    12:00 +16°C° 0.1 mm 6 mps 748 mmHg 50%
    13:00 +15°C° 0.1 mm 6 mps 748 mmHg 51%
    14:00 +15°C° 0.1 mm 6 mps 747 mmHg 53%
    15:00 +14°C° 0 mm 6 mps 748 mmHg 52%
    16:00 +14°C° 0 mm 6 mps 748 mmHg 51%
    17:00 +13°C° 0 mm 6 mps 748 mmHg 50%
    18:00 +12°C° 0 mm 5 mps 748 mmHg 54%
    19:00 +9°C° 0 mm 5 mps 749 mmHg 58%
    20:00 +8°C° 0 mm 4 mps 749 mmHg 63%
    21:00 +7°C° 0 mm 4 mps 749 mmHg 63%
    22:00 +8°C° 0 mm 3 mps 750 mmHg 63%
    23:00 +7°C° 0 mm 3 mps 750 mmHg 63%

    11 April, Saturday

    Time Temperature Precipitation Wind Pressure Humidity
    00:00 +5°C° 0 mm 3 mps 750 mmHg 64%
    01:00 +5°C° 0 mm 3 mps 750 mmHg 65%
    02:00 +4°C° 0 mm 3 mps 751 mmHg 66%
    03:00 +4°C° 0 mm 3 mps 751 mmHg 68%
    04:00 +3°C° 0 mm 3 mps 751 mmHg 70%
    05:00 +3°C° 0 mm 3 mps 751 mmHg 72%
    06:00 +4°C° 0 mm 3 mps 751 mmHg 68%
    07:00 +5°C° 0 mm 3 mps 752 mmHg 64%
    08:00 +7°C° 0 mm 4 mps 752 mmHg 61%
    09:00 +8°C° 0 mm 4 mps 752 mmHg 56%
    10:00 +8°C° 0 mm 5 mps 752 mmHg 52%
    11:00 +9°C° 0 mm 5 mps 752 mmHg 48%
    12:00 +10°C° 0 mm 5 mps 752 mmHg 45%
    13:00 +10°C° 0 mm 5 mps 752 mmHg 41%
    14:00 +12°C° 0 mm 4 mps 752 mmHg 38%
    15:00 +11°C° 0 mm 4 mps 752 mmHg 38%
    16:00 +11°C° 0 mm 4 mps 751 mmHg 39%
    17:00 +11°C° 0 mm 3 mps 751 mmHg 39%
    18:00 +10°C° 0 mm 2 mps 751 mmHg 43%
    19:00 +9°C° 0 mm 1 mps 752 mmHg 47%
    20:00 +7°C° 0 mm 0 mps 752 mmHg 51%
    21:00 +8°C° 0 mm 1 mps 752 mmHg 52%
    22:00 +8°C° 0 mm 1 mps 752 mmHg 53%
    23:00 +6°C° 0 mm 2 mps 752 mmHg 54%
    Show more